Location: Noverd
(38.0910°N, 121.6877°W)
Time: 18:34:49
(UTC+00:00)

Meteor 1-11 - Pass Details

Date: 13 February 2026
Orbit: 828 x 895 km, 81.2° (Epoch: 10 March)

Event Time Altitude Azimuth Distance (km) Brightness Sun altitude
Rises 13:03:06 0° 350° (N) 3,510 7.3 -23.4°
Reaches altitude 10° 13:05:34 10° 349° (N) 2,570 6.6 -22.9°
Maximum altitude 13:11:26 83° 263° (W) 906 4.2 -21.7°
Drops below altitude 10° 13:17:17 10° 176° (S) 2,553 6.8 -20.6°
Sets 13:19:43 0° 175° (S) 3,485 7.5 -20.1°
